NORTHEAST SUFFOLK  -  Special Weather Statement Special Weather Statement        NORTHERN NASSAU  -  Special Weather Statement Special Weather Statement        NORTHWEST SUFFOLK  -  Special Weather Statement Special Weather Statement        SOUTHEAST SUFFOLK  -  Special Weather Statement Special Weather Statement        SOUTHERN NASSAU  -  Special Weather Statement Special Weather Statement        SOUTHWEST SUFFOLK  -  Special Weather Statement Special Weather Statement      

Active alerts

Northern Nassau
  Details for Northern Nassau Special Weather Statement
Southern Nassau
  Details for Southern Nassau Special Weather Statement
Northwest Suffolk
  Details for Northwest Suffolk Special Weather Statement
Southwest Suffolk
  Details for Southwest Suffolk Special Weather Statement
Northeast Suffolk
  Details for Northeast Suffolk Special Weather Statement
Southeast Suffolk
  Details for Southeast Suffolk Special Weather Statement


WXM80 ListenWXM80 Stop

You find our weather info also at:

UK Metoffice

WeatherCloud

Weather Underground

Northeastern Weather Network

AWEKAS

Citizen Weather Observer Program (CWOP)

HAMweather, WeatherForYou, PWS Weather


Weather Underground History page Text

Daily Summary for April 25, 2016 Units:  English    Metric   Both
« Previous Day
Next Day »
Daily Weekly Monthly Yearly Custom
  High: Low: Average:
Temperature: 63.8 °F 43.7 °F 54 °F
Dew Point: 51.0 °F 37.1 °F 44.8 °F
Humidity: 91 % 49 % 72 %
Wind Speed: 7.0 mph 0.0 mph 1.3 mph
Wind Gust: 11.5 mph - -
Wind:- - East
Pressure: 30.03 in 29.84 in -
Precipitation: 0.00 in    
Historical Graphs
 
 
Tabular Data for April 25, 2016
Time Temperature Dew Point Pressure Wind Wind Speed Wind Gust Humidity Rainfall Rate (Hourly)
00:03 48.1 °F 37.3 °F 30.03 in Calm     66 % 0.00 in
00:08 47.9 °F 37.1 °F 30.02 in Calm     66 % 0.00 in
00:13 47.7 °F 37.3 °F 30.03 in Calm     67 % 0.00 in
00:18 47.5 °F 37.1 °F 30.03 in Calm     67 % 0.00 in
00:23 47.4 °F 37.4 °F 30.03 in Calm     68 % 0.00 in
00:28 47.2 °F 37.5 °F 30.03 in Calm     69 % 0.00 in
00:33 47.2 °F 37.5 °F 30.03 in Calm     69 % 0.00 in
00:38 47.0 °F 37.7 °F 30.02 in Calm     70 % 0.00 in
00:43 47.0 °F 37.7 °F 30.02 in Calm     70 % 0.00 in
00:48 46.9 °F 38.0 °F 30.02 in Calm     71 % 0.00 in
00:53 46.7 °F 37.8 °F 30.02 in Calm     71 % 0.00 in
00:59 46.7 °F 38.1 °F 30.02 in Calm     72 % 0.00 in
01:04 46.6 °F 38.1 °F 30.02 in Calm     72 % 0.00 in
01:09 46.4 °F 37.9 °F 30.02 in Calm     72 % 0.00 in
01:14 46.3 °F 38.1 °F 30.02 in Calm     73 % 0.00 in
01:19 46.1 °F 38.3 °F 30.02 in Calm     74 % 0.00 in
01:24 46.0 °F 38.2 °F 30.01 in Calm     74 % 0.00 in
01:34 45.6 °F 38.1 °F 30.01 in Calm     75 % 0.00 in
01:39 45.5 °F 38.0 °F 30.01 in Calm     75 % 0.00 in
01:45 45.4 °F 38.3 °F 30.01 in Calm     76 % 0.00 in
01:50 45.2 °F 38.1 °F 30.01 in Calm     76 % 0.00 in
01:55 45.1 °F 38.3 °F 30.01 in Calm     77 % 0.00 in
02:00 45.0 °F 38.6 °F 30.01 in Calm     78 % 0.00 in
02:05 44.9 °F 38.5 °F 30.01 in Calm     78 % 0.00 in
02:10 44.8 °F 38.4 °F 30.01 in Calm     78 % 0.00 in
02:15 44.7 °F 38.3 °F 30.01 in Calm     78 % 0.00 in
02:20 44.5 °F 38.4 °F 30.00 in Calm     79 % 0.00 in
02:25 44.4 °F 38.3 °F 30.00 in Calm     79 % 0.00 in
02:36 44.2 °F 38.1 °F 30.01 in Calm     79 % 0.00 in
02:41 44.1 °F 38.3 °F 30.01 in Calm     80 % 0.00 in
02:46 44.0 °F 38.2 °F 30.01 in Calm     80 % 0.00 in
02:56 43.8 °F 38.3 °F 30.00 in Calm     81 % 0.00 in
03:06 43.7 °F 38.9 °F 30.01 in Calm     83 % 0.00 in
03:16 43.7 °F 38.9 °F 30.00 in Calm     83 % 0.00 in
03:21 43.8 °F 39.6 °F 30.00 in Calm     85 % 0.00 in
03:27 43.8 °F 39.6 °F 30.00 in Calm     85 % 0.00 in
03:32 43.8 °F 39.6 °F 30.00 in Calm     85 % 0.00 in
03:37 44.0 °F 40.1 °F 30.00 in Calm     86 % 0.00 in
03:42 44.1 °F 40.2 °F 30.01 in Calm     86 % 0.00 in
03:47 44.2 °F 40.6 °F 30.01 in Calm     87 % 0.00 in
03:52 44.3 °F 40.7 °F 30.01 in Calm     87 % 0.00 in
03:57 44.5 °F 40.9 °F 30.00 in Calm     87 % 0.00 in
04:02 44.6 °F 41.0 °F 30.01 in Calm     87 % 0.00 in
04:07 44.8 °F 41.5 °F 30.00 in Calm     88 % 0.00 in
04:12 45.0 °F 41.4 °F 30.00 in Calm     87 % 0.00 in
04:18 45.1 °F 41.5 °F 30.00 in Calm     87 % 0.00 in
04:23 45.1 °F 41.5 °F 30.01 in Calm     87 % 0.00 in
04:28 45.2 °F 41.6 °F 30.00 in Calm     87 % 0.00 in
04:33 45.3 °F 41.7 °F 30.00 in Calm     87 % 0.00 in
04:38 45.4 °F 41.8 °F 30.01 in Calm     87 % 0.00 in
04:43 45.5 °F 41.9 °F 30.01 in Calm     87 % 0.00 in
04:48 45.6 °F 42.0 °F 30.01 in Calm     87 % 0.00 in
04:53 45.8 °F 42.2 °F 30.01 in Calm     87 % 0.00 in
04:58 45.9 °F 42.5 °F 30.01 in Calm     88 % 0.00 in
05:03 46.0 °F 42.6 °F 30.01 in Calm     88 % 0.00 in
05:09 46.0 °F 42.6 °F 30.00 in Calm     88 % 0.00 in
05:14 46.1 °F 42.4 °F 30.01 in Calm     87 % 0.00 in
05:19 46.2 °F 42.5 °F 30.01 in Calm     87 % 0.00 in
05:24 46.2 °F 42.5 °F 30.01 in Calm     87 % 0.00 in
05:29 46.3 °F 42.6 °F 30.01 in Calm     87 % 0.00 in
05:34 46.4 °F 43.0 °F 30.01 in Calm     88 % 0.00 in
05:39 46.5 °F 43.1 °F 30.01 in Calm     88 % 0.00 in
05:49 46.5 °F 43.1 °F 30.01 in Calm     88 % 0.00 in
05:54 46.6 °F 43.2 °F 30.01 in Calm     88 % 0.00 in
06:00 46.7 °F 43.3 °F 30.01 in Calm     88 % 0.00 in
06:05 46.8 °F 43.7 °F 30.01 in Calm     89 % 0.00 in
06:10 46.9 °F 43.8 °F 30.01 in Calm     89 % 0.00 in
06:15 46.9 °F 43.8 °F 30.01 in Calm     89 % 0.00 in
06:20 46.9 °F 43.5 °F 30.01 in Calm     88 % 0.00 in
06:25 47.0 °F 43.6 °F 30.01 in Calm     88 % 0.00 in
06:30 47.1 °F 44.0 °F 30.01 in Calm     89 % 0.00 in
06:35 47.1 °F 44.0 °F 30.01 in Calm     89 % 0.00 in
06:40 47.2 °F 44.1 °F 30.01 in Calm     89 % 0.00 in
06:45 47.2 °F 44.1 °F 30.01 in Calm     89 % 0.00 in
06:51 47.2 °F 44.1 °F 30.01 in Calm     89 % 0.00 in
06:56 47.3 °F 44.2 °F 30.02 in Calm     89 % 0.00 in
07:01 47.4 °F 44.3 °F 30.02 in Calm     89 % 0.00 in
07:06 47.5 °F 44.7 °F 30.02 in Calm     90 % 0.00 in
07:11 47.6 °F 44.8 °F 30.02 in Calm     90 % 0.00 in
07:16 47.8 °F 45.0 °F 30.02 in Calm     90 % 0.00 in
07:21 48.1 °F 45.6 °F 30.03 in Calm   1.2 mph 91 % 0.00 in
07:26 48.4 °F 45.9 °F 30.02 in Calm     91 % 0.00 in
07:31 48.7 °F 46.2 °F 30.02 in Calm     91 % 0.00 in
07:36 49.0 °F 46.5 °F 30.02 in Calm     91 % 0.00 in
07:42 49.4 °F 46.6 °F 30.02 in Calm     90 % 0.00 in
07:47 49.7 °F 46.9 °F 30.02 in Calm     90 % 0.00 in
07:52 50.0 °F 46.9 °F 30.02 in Calm     89 % 0.00 in
07:57 50.2 °F 46.8 °F 30.02 in Calm     88 % 0.00 in
08:02 50.4 °F 47.0 °F 30.02 in Calm     88 % 0.00 in
08:07 50.6 °F 47.2 °F 30.02 in Calm     88 % 0.00 in
08:12 50.9 °F 47.5 °F 30.03 in WSW 0.2 mph 1.2 mph 88 % 0.00 in
08:17 51.2 °F 47.5 °F 30.03 in Calm     87 % 0.00 in
08:27 52.0 °F 48.3 °F 30.02 in Calm     87 % 0.00 in
08:33 52.3 °F 48.2 °F 30.02 in Calm     86 % 0.00 in
08:38 52.6 °F 48.5 °F 30.03 in Calm     86 % 0.00 in
08:43 52.9 °F 48.5 °F 30.03 in Calm     85 % 0.00 in
08:48 53.3 °F 48.9 °F 30.02 in North 1.8 mph 3.5 mph 85 % 0.00 in
08:53 53.8 °F 49.1 °F 30.03 in NNE 3.2 mph 5.8 mph 84 % 0.00 in
08:58 54.2 °F 49.5 °F 30.03 in North 2.6 mph 3.5 mph 84 % 0.00 in
09:03 54.4 °F 49.3 °F 30.03 in North 3.9 mph 4.6 mph 83 % 0.00 in
09:08 54.6 °F 49.2 °F 30.03 in North 1.2 mph 3.5 mph 82 % 0.00 in
09:13 54.8 °F 49.4 °F 30.03 in North 1.7 mph 3.5 mph 82 % 0.00 in
09:18 54.9 °F 49.2 °F 30.03 in North 1.0 mph 2.3 mph 81 % 0.00 in
09:24 55.1 °F 49.4 °F 30.03 in NNE 4.1 mph 4.6 mph 81 % 0.00 in
09:29 55.2 °F 49.1 °F 30.02 in NNE 0.7 mph 2.3 mph 80 % 0.00 in
09:34 55.3 °F 48.9 °F 30.02 in NNE 3.9 mph 5.8 mph 79 % 0.00 in
09:39 55.3 °F 49.2 °F 30.02 in NNE 3.3 mph 6.0 mph 80 % 0.00 in
09:44 55.3 °F 48.9 °F 30.02 in NNE 2.3 mph 4.0 mph 79 % 0.00 in
09:49 55.5 °F 49.1 °F 30.02 in NNE 2.0 mph 3.5 mph 79 % 0.00 in
09:54 55.7 °F 48.9 °F 30.02 in NNE 0.2 mph 1.2 mph 78 % 0.00 in
09:59 55.9 °F 49.1 °F 30.02 in NNE 2.0 mph 4.6 mph 78 % 0.00 in
10:04 56.2 °F 49.4 °F 30.02 in NNE 2.1 mph 3.5 mph 78 % 0.00 in
10:09 56.5 °F 49.4 °F 30.02 in NNE 2.7 mph 4.0 mph 77 % 0.00 in
10:15 56.8 °F 49.7 °F 30.02 in NNE 1.9 mph 3.5 mph 77 % 0.00 in
10:20 57.2 °F 50.1 °F 30.02 in NNE 1.2 mph 3.5 mph 77 % 0.00 in
10:25 57.9 °F 50.0 °F 30.02 in NNE 2.9 mph 5.0 mph 75 % 0.00 in
10:30 58.7 °F 50.1 °F 30.02 in NE 2.1 mph 3.5 mph 73 % 0.00 in
10:35 58.4 °F 48.3 °F 30.02 in ENE 3.8 mph 5.8 mph 69 % 0.00 in
10:40 58.6 °F 50.0 °F 30.02 in ENE 3.1 mph 3.5 mph 73 % 0.00 in
10:45 58.4 °F 47.9 °F 30.01 in ENE 3.1 mph 6.9 mph 68 % 0.00 in
10:51 57.7 °F 48.0 °F 30.01 in ENE 1.7 mph 6.9 mph 70 % 0.00 in
10:56 57.6 °F 48.6 °F 30.01 in East 2.2 mph 5.0 mph 72 % 0.00 in
11:01 57.4 °F 47.7 °F 30.00 in ENE 1.1 mph 3.0 mph 70 % 0.00 in
11:06 57.1 °F 48.2 °F 30.00 in NE 2.7 mph 4.0 mph 72 % 0.00 in
11:11 56.8 °F 47.9 °F 30.00 in ENE 3.7 mph 4.6 mph 72 % 0.00 in
11:16 56.6 °F 48.0 °F 30.00 in ENE 3.0 mph 4.6 mph 73 % 0.00 in
11:21 56.4 °F 47.9 °F 30.00 in ENE 3.0 mph 4.6 mph 73 % 0.00 in
11:26 56.3 °F 47.8 °F 30.00 in ENE 3.9 mph 5.0 mph 73 % 0.00 in
11:32 56.4 °F 47.1 °F 29.99 in ENE 2.6 mph 4.0 mph 71 % 0.00 in
11:42 57.5 °F 48.5 °F 29.99 in NNE 1.5 mph 3.5 mph 72 % 0.00 in
11:45 58.4 °F 47.1 °F 29.98 in ENE 2.3 mph 3.5 mph 66 % 0.00 in
11:50 58.9 °F 48.0 °F 29.98 in NE 2.2 mph 3.5 mph 67 % 0.00 in
12:01 59.6 °F 47.0 °F 29.98 in ENE 3.2 mph 6.9 mph 63 % 0.00 in
12:06 59.7 °F 48.7 °F 29.98 in NNE 3.0 mph 5.0 mph 67 % 0.00 in
12:11 60.3 °F 49.7 °F 29.98 in NE 3.1 mph 4.6 mph 68 % 0.00 in
12:16 59.6 °F 48.2 °F 29.98 in ENE 4.3 mph 6.9 mph 66 % 0.00 in
12:21 59.7 °F 49.1 °F 29.97 in NNE 5.0 mph 7.0 mph 68 % 0.00 in
12:26 60.5 °F 51.0 °F 29.97 in NNE 3.8 mph 6.9 mph 71 % 0.00 in
12:31 61.6 °F 50.5 °F 29.97 in NE 4.2 mph 4.6 mph 67 % 0.00 in
12:36 62.2 °F 49.4 °F 29.96 in ENE 4.7 mph 5.8 mph 63 % 0.00 in
12:41 61.5 °F 46.6 °F 29.96 in East 2.8 mph 5.8 mph 58 % 0.00 in
12:47 60.6 °F 47.1 °F 29.96 in NE 4.6 mph 5.8 mph 61 % 0.00 in
12:52 60.2 °F 48.8 °F 29.96 in ENE 2.4 mph 4.6 mph 66 % 0.00 in
12:57 60.3 °F 48.5 °F 29.96 in ENE 3.6 mph 5.8 mph 65 % 0.00 in
13:02 60.0 °F 46.1 °F 29.95 in NE 4.1 mph 8.1 mph 60 % 0.00 in
13:07 59.7 °F 46.2 °F 29.95 in ENE 3.2 mph 5.8 mph 61 % 0.00 in
13:12 59.2 °F 45.3 °F 29.95 in East 2.1 mph 5.8 mph 60 % 0.00 in
13:17 59.2 °F 43.5 °F 29.95 in NE 3.9 mph 4.6 mph 56 % 0.00 in
13:22 59.1 °F 41.5 °F 29.95 in ENE 3.5 mph 5.0 mph 52 % 0.00 in
13:27 59.4 °F 41.3 °F 29.95 in ENE 3.2 mph 7.0 mph 51 % 0.00 in
13:32 59.5 °F 41.3 °F 29.95 in ENE 4.3 mph 8.1 mph 51 % 0.00 in
13:38 59.4 °F 41.8 °F 29.95 in ENE 7.0 mph 10.4 mph 52 % 0.00 in
13:43 59.1 °F 44.3 °F 29.95 in East 2.9 mph 5.8 mph 58 % 0.00 in
13:48 58.9 °F 44.1 °F 29.95 in ENE 5.0 mph 7.0 mph 58 % 0.00 in
13:53 58.6 °F 43.9 °F 29.95 in NE 3.6 mph 4.6 mph 58 % 0.00 in
13:58 58.6 °F 43.4 °F 29.96 in NE 4.5 mph 6.9 mph 57 % 0.00 in
14:03 58.4 °F 43.2 °F 29.96 in NE 3.8 mph 5.0 mph 57 % 0.00 in
14:08 58.3 °F 42.7 °F 29.96 in East 2.7 mph 4.6 mph 56 % 0.00 in
14:13 58.2 °F 42.1 °F 29.96 in ENE 3.2 mph 7.0 mph 55 % 0.00 in
14:18 58.2 °F 40.1 °F 29.95 in ENE 3.9 mph 8.1 mph 51 % 0.00 in
14:23 58.4 °F 41.8 °F 29.94 in ENE 3.2 mph 4.6 mph 54 % 0.00 in
14:29 59.1 °F 42.0 °F 29.94 in ENE 2.7 mph 8.1 mph 53 % 0.00 in
14:34 59.7 °F 41.5 °F 29.94 in ENE 5.2 mph 9.2 mph 51 % 0.00 in
14:39 59.7 °F 41.0 °F 29.94 in ENE 5.0 mph 9.2 mph 50 % 0.00 in
14:44 59.6 °F 40.4 °F 29.94 in ENE 6.7 mph 9.2 mph 49 % 0.00 in
14:49 59.3 °F 41.2 °F 29.94 in East 2.4 mph 4.6 mph 51 % 0.00 in
14:54 59.7 °F 43.0 °F 29.94 in ENE 2.5 mph 5.8 mph 54 % 0.00 in
14:59 59.6 °F 41.9 °F 29.93 in East 3.2 mph 9.2 mph 52 % 0.00 in
15:04 59.4 °F 42.3 °F 29.93 in ENE 6.0 mph 8.1 mph 53 % 0.00 in
15:09 58.9 °F 41.8 °F 29.93 in NE 3.2 mph 8.1 mph 53 % 0.00 in
15:14 58.8 °F 40.7 °F 29.93 in ENE 6.5 mph 8.1 mph 51 % 0.00 in
15:20 58.9 °F 41.3 °F 29.92 in ENE 2.8 mph 3.5 mph 52 % 0.00 in
15:25 59.5 °F 41.9 °F 29.92 in ENE 1.6 mph 3.5 mph 52 % 0.00 in
15:30 60.1 °F 43.4 °F 29.92 in NE 3.2 mph 5.8 mph 54 % 0.00 in
15:35 60.4 °F 43.2 °F 29.92 in East 1.5 mph 4.6 mph 53 % 0.00 in
15:40 60.8 °F 44.0 °F 29.92 in ESE 1.8 mph 3.5 mph 54 % 0.00 in
15:50 60.2 °F 42.5 °F 29.91 in East 4.5 mph 6.9 mph 52 % 0.00 in
15:55 59.9 °F 43.2 °F 29.91 in East 3.7 mph 6.0 mph 54 % 0.00 in
16:00 59.8 °F 44.1 °F 29.91 in ENE 2.0 mph 4.6 mph 56 % 0.00 in
16:05 60.0 °F 44.3 °F 29.92 in ENE 1.7 mph 3.5 mph 56 % 0.00 in
16:11 59.9 °F 43.7 °F 29.92 in ENE 3.5 mph 5.0 mph 55 % 0.00 in
16:16 59.8 °F 44.1 °F 29.92 in ENE 4.6 mph 6.9 mph 56 % 0.00 in
16:21 59.6 °F 43.4 °F 29.91 in ENE 2.6 mph 6.9 mph 55 % 0.00 in
16:26 59.6 °F 45.2 °F 29.91 in NE 2.7 mph 4.0 mph 59 % 0.00 in
16:31 59.6 °F 43.9 °F 29.91 in NE 2.8 mph 3.5 mph 56 % 0.00 in
16:36 59.7 °F 43.5 °F 29.90 in East 1.9 mph 3.5 mph 55 % 0.00 in
16:41 59.7 °F 43.5 °F 29.90 in East 2.9 mph 5.0 mph 55 % 0.00 in
16:46 59.8 °F 44.5 °F 29.90 in NE 2.3 mph 3.5 mph 57 % 0.00 in
16:51 59.8 °F 44.5 °F 29.90 in East 1.2 mph 3.5 mph 57 % 0.00 in
16:56 59.8 °F 43.6 °F 29.89 in East 1.0 mph 2.3 mph 55 % 0.00 in
17:02 59.9 °F 43.2 °F 29.89 in East 0.3 mph 3.5 mph 54 % 0.00 in
17:07 59.9 °F 44.2 °F 29.89 in East 0.7 mph 3.5 mph 56 % 0.00 in
17:12 60.2 °F 44.9 °F 29.89 in East 1.3 mph 2.3 mph 57 % 0.00 in
17:17 60.7 °F 44.4 °F 29.88 in East 0.9 mph 2.3 mph 55 % 0.00 in
17:27 61.2 °F 45.8 °F 29.88 in East 0.1 mph 1.0 mph 57 % 0.00 in
17:32 61.5 °F 45.2 °F 29.88 in East 1.7 mph 2.3 mph 55 % 0.00 in
17:42 61.9 °F 45.5 °F 29.88 in East 0.8 mph 1.2 mph 55 % 0.00 in
17:47 62.2 °F 46.3 °F 29.88 in East 0.7 mph 1.2 mph 56 % 0.00 in
17:53 62.5 °F 46.6 °F 29.88 in East 0.7 mph 3.5 mph 56 % 0.00 in
17:58 62.9 °F 46.0 °F 29.88 in East 0.4 mph 1.2 mph 54 % 0.00 in
18:03 63.1 °F 47.1 °F 29.88 in ENE 2.1 mph 3.5 mph 56 % 0.00 in
18:08 63.3 °F 48.3 °F 29.87 in Calm   1.2 mph 58 % 0.00 in
18:13 63.4 °F 48.8 °F 29.87 in SSE 1.1 mph 4.0 mph 59 % 0.00 in
18:18 63.6 °F 49.5 °F 29.87 in SSE 0.4 mph 3.0 mph 60 % 0.00 in
18:23 63.8 °F 49.2 °F 29.87 in SSE 2.5 mph 11.5 mph 59 % 0.00 in
18:28 63.7 °F 49.1 °F 29.87 in SSW 2.2 mph 4.6 mph 59 % 0.00 in
18:38 63.4 °F 49.3 °F 29.87 in SSE 0.8 mph 3.5 mph 60 % 0.00 in
18:44 63.2 °F 49.1 °F 29.87 in SE 3.0 mph 5.8 mph 60 % 0.00 in
18:49 62.9 °F 49.2 °F 29.87 in South 4.0 mph 8.1 mph 61 % 0.00 in
18:54 62.7 °F 49.1 °F 29.88 in SE 2.6 mph 4.6 mph 61 % 0.00 in
18:59 62.3 °F 49.1 °F 29.87 in SE 3.7 mph 6.9 mph 62 % 0.00 in
19:04 62.0 °F 49.3 °F 29.87 in Calm     63 % 0.00 in
19:09 61.8 °F 49.1 °F 29.87 in SSE 0.4 mph 2.3 mph 63 % 0.00 in
19:14 61.5 °F 49.2 °F 29.87 in South 1.3 mph 3.5 mph 64 % 0.00 in
19:19 61.1 °F 48.8 °F 29.87 in SSE 2.1 mph 4.6 mph 64 % 0.00 in
19:24 60.7 °F 48.4 °F 29.87 in South 1.6 mph 3.5 mph 64 % 0.00 in
19:29 60.4 °F 48.6 °F 29.87 in SSW 2.5 mph 3.5 mph 65 % 0.00 in
19:35 60.0 °F 48.2 °F 29.87 in SSE 2.4 mph 4.6 mph 65 % 0.00 in
19:40 59.6 °F 48.2 °F 29.87 in South 0.3 mph 1.2 mph 66 % 0.00 in
19:45 59.3 °F 47.9 °F 29.87 in South 0.5 mph 2.3 mph 66 % 0.00 in
19:50 59.2 °F 48.2 °F 29.87 in South 1.2 mph 4.0 mph 67 % 0.00 in
19:55 58.9 °F 48.4 °F 29.87 in SSE 1.7 mph 3.5 mph 68 % 0.00 in
20:00 58.6 °F 48.1 °F 29.87 in SSW 0.8 mph 2.3 mph 68 % 0.00 in
20:05 58.5 °F 48.4 °F 29.87 in SSW 1.0 mph 4.0 mph 69 % 0.00 in
20:10 58.2 °F 48.1 °F 29.87 in South 1.5 mph 3.5 mph 69 % 0.00 in
20:15 57.9 °F 47.8 °F 29.87 in South 1.1 mph 2.3 mph 69 % 0.00 in
20:20 57.7 °F 48.0 °F 29.87 in South 0.3 mph 3.0 mph 70 % 0.00 in
20:26 57.3 °F 48.0 °F 29.87 in SSE 3.3 mph 7.0 mph 71 % 0.00 in
20:31 57.1 °F 47.8 °F 29.87 in South 0.6 mph 2.3 mph 71 % 0.00 in
20:41 56.8 °F 47.9 °F 29.87 in South 0.4 mph 1.2 mph 72 % 0.00 in
20:46 56.7 °F 47.8 °F 29.87 in South 0.8 mph 2.0 mph 72 % 0.00 in
20:51 56.5 °F 47.6 °F 29.87 in South 1.1 mph 2.0 mph 72 % 0.00 in
21:01 56.2 °F 47.3 °F 29.88 in Calm     72 % 0.00 in
21:06 56.2 °F 47.3 °F 29.88 in Calm     72 % 0.00 in
21:12 56.0 °F 47.5 °F 29.88 in Calm   1.2 mph 73 % 0.00 in
21:17 55.8 °F 47.3 °F 29.88 in Calm     73 % 0.00 in
21:22 55.7 °F 47.2 °F 29.88 in South 0.1 mph 1.2 mph 73 % 0.00 in
21:27 55.4 °F 47.2 °F 29.88 in Calm     74 % 0.00 in
21:32 55.3 °F 47.2 °F 29.88 in Calm   1.2 mph 74 % 0.00 in
21:42 55.0 °F 46.9 °F 29.88 in Calm     74 % 0.00 in
21:47 54.8 °F 47.0 °F 29.88 in Calm     75 % 0.00 in
21:52 54.6 °F 46.8 °F 29.88 in Calm     75 % 0.00 in
22:03 54.3 °F 46.9 °F 29.88 in Calm     76 % 0.00 in
22:08 54.2 °F 47.1 °F 29.88 in Calm     77 % 0.00 in
22:13 54.1 °F 47.4 °F 29.87 in Calm     78 % 0.00 in
22:18 53.9 °F 47.5 °F 29.87 in Calm     79 % 0.00 in
22:23 53.7 °F 47.3 °F 29.86 in Calm     79 % 0.00 in
22:28 53.6 °F 47.2 °F 29.86 in Calm     79 % 0.00 in
22:33 53.5 °F 47.1 °F 29.86 in South 0.2 mph 2.3 mph 79 % 0.00 in
22:38 53.4 °F 47.0 °F 29.85 in Calm   1.2 mph 79 % 0.00 in
22:48 53.3 °F 47.3 °F 29.84 in South 0.1 mph 1.2 mph 80 % 0.00 in
22:54 53.2 °F 47.2 °F 29.84 in SE 1.0 mph 3.5 mph 80 % 0.00 in
22:59 53.2 °F 47.2 °F 29.84 in SE 0.4 mph 2.3 mph 80 % 0.00 in
23:04 53.3 °F 47.6 °F 29.84 in SE 0.1 mph 1.2 mph 81 % 0.00 in
23:09 53.2 °F 47.5 °F 29.85 in SE 0.1 mph 1.2 mph 81 % 0.00 in
23:14 53.3 °F 47.9 °F 29.85 in SE 0.5 mph 1.2 mph 82 % 0.00 in
23:19 53.3 °F 47.6 °F 29.84 in Calm     81 % 0.00 in
23:24 53.3 °F 47.9 °F 29.84 in Calm   1.2 mph 82 % 0.00 in
23:29 53.4 °F 47.7 °F 29.84 in Calm   1.2 mph 81 % 0.00 in
23:34 53.3 °F 47.9 °F 29.85 in North 1.6 mph 3.5 mph 82 % 0.00 in
23:39 53.4 °F 48.0 °F 29.85 in North 0.1 mph   82 % 0.00 in
23:45 53.3 °F 47.9 °F 29.84 in Calm   2.3 mph 82 % 0.00 in
23:50 53.3 °F 47.9 °F 29.85 in Calm     82 % 0.00 in
23:55 53.3 °F 47.9 °F 29.85 in Calm     82 % 0.00 in
Crab Meadow Weather
Compliments of Weather Underground - 3 mb

Script developed by  Jim McMurry - jmcmurry@mwt.net Adapted for the template by  Wim van der Kuil - Leuven-Template.eu

Lightning: Lightning's return stroke is hotter than the surface of the sun. Lightning is 50,000 degrees F. The sun is about 11,000 degrees F.